Temperature
30 29 29 30 31 30 30 29 28 27 27 27 27 26 26 25 25 24 23 22 21 20 20 20 19 19 18 18 18 18 18 18 18 18 17 17 17 17 17 17 16 16 16 15
30 29 30 31 32 31 30 28 27 27 28 28 27 26 26 25 24 24 23 22 21 20 20 19 19 19 18 18 18 18 18 18 17 17 17 17 17 17 17 17 16 16 15 15
30 31 32 32 31 30 30 29 28 28 29 28 26 25 24 24 24 24 24 23 22 21 20 20 19 19 19 18 18 18 18 18 17 17 17 17 17 17 17 16 16 16 15 15
30 32 32 31 31 30 29 30 29 28 27 26 26 23 23 24 24 24 24 23 22 22 21 20 20 19 19 19 18 18 18 17 17 17 17 17 16 16 16 16 16 15 15 14
30 31 31 31 31 31 30 30 28 27 25 24 24 24 24 24 24 24 24 24 23 22 21 21 20 20 20 19 19 18 18 17 17 16 16 16 16 16 16 15 15 15 15 14
30 31 32 31 32 31 31 29 27 24 22 21 23 23 23 24 25 25 25 24 23 23 22 21 21 20 20 20 19 18 18 17 16 16 16 15 15 15 15 15 14 14 14 14
29 30 31 31 31 31 30 27 24 22 20 21 24 25 24 26 27 26 26 25 24 23 23 22 21 21 20 20 19 18 18 17 16 16 15 15 14 14 14 14 14 14 14 14
28 27 29 30 30 30 30 28 26 24 24 24 25 25 25 27 27 27 26 25 24 23 23 22 22 21 21 20 19 18 17 17 16 15 15 14 14 14 14 14 14 13 13 13
29 28 30 31 31 31 30 29 30 28 27 25 25 25 26 27 27 27 26 25 25 24 23 23 22 21 21 20 19 18 17 16 16 15 15 14 14 14 13 13 13 13 12 12
30 29 30 31 31 31 31 31 30 28 26 24 24 25 25 26 27 27 27 26 25 25 24 23 22 22 21 20 19 18 17 16 16 15 14 15 14 13 13 13 12 12 12 12
31 29 30 30 29 28 29 29 29 29 28 25 22 24 27 27 27 27 27 27 26 25 24 23 23 21 21 20 19 18 17 16 15 15 14 14 13 13 13 12 12 12 12 11
31 30 29 28 28 29 29 29 29 27 27 27 26 25 28 28 28 28 28 27 26 25 25 24 22 21 20 20 19 18 17 16 16 15 14 14 13 13 12 12 12 11 11 11
30 29 27 26 24 25 26 28 29 29 28 27 26 25 28 28 29 28 28 27 26 25 25 23 22 21 20 19 19 18 17 16 15 15 14 14 13 13 12 12 12 11 11 11
30 28 27 25 22 23 24 27 29 29 27 27 27 26 28 28 28 28 28 27 26 25 24 23 22 21 20 19 18 17 17 16 15 15 14 14 13 13 12 12 12 11 11 11
30 28 28 27 26 26 26 28 29 29 29 28 27 27 28 28 28 28 27 27 26 25 24 23 21 20 19 19 18 17 17 16 15 15 14 14 13 13 12 12 12 11 11 11
28 28 28 28 28 28 28 29 30 30 29 30 29 28 29 29 28 28 27 27 26 25 24 23 21 20 19 18 18 17 16 16 15 14 14 14 13 13 12 12 12 11 11 11
27 27 26 27 28 28 28 29 30 30 30 30 29 29 29 29 28 28 27 26 26 25 24 23 21 20 19 18 18 17 16 16 15 14 14 14 13 13 13 12 12 11 11 11
26 26 26 27 26 25 28 30 30 30 30 30 30 30 29 29 28 27 27 26 25 25 24 23 21 20 19 18 17 17 16 16 15 15 14 14 13 13 13 12 12 11 11 11
27 26 26 26 26 26 28 29 29 28 29 30 30 29 29 29 28 27 26 25 25 24 23 22 21 20 19 18 17 17 16 16 15 15 14 14 13 13 12 12 12 11 11 11
25 26 26 26 26 25 26 27 28 28 27 29 29 28 28 28 27 26 26 25 24 23 22 22 21 20 19 18 17 17 16 16 15 15 14 14 13 13 13 12 12 11 11 11
24 24 25 26 25 26 26 26 26 25 25 27 28 28 27 27 27 26 25 24 23 23 22 21 20 20 19 18 17 16 16 16 15 15 14 14 14 13 13 12 12 12 11 11
24 24 24 25 24 24 25 26 24 23 25 26 27 27 27 26 26 25 25 24 23 22 21 21 20 19 18 18 17 17 16 16 15 15 14 14 14 13 13 12 12 12 11 11
25 25 24 23 23 22 23 23 23 24 25 26 26 26 26 26 25 25 24 23 22 22 21 20 19 19 18 18 17 17 16 16 15 15 14 14 14 13 13 12 12 12 11 11
25 24 24 23 22 22 23 23 23 25 25 25 25 25 25 25 24 24 23 22 22 21 21 20 19 18 18 17 17 16 16 16 15 15 14 14 14 13 13 12 12 12 12 12
25 24 24 23 23 23 23 23 23 24 24 24 24 24 24 24 23 23 22 21 21 21 20 19 19 18 18 17 16 16 16 15 15 14 14 14 13 13 13 13 12 12 12 12
25 24 24 23 23 23 22 23 23 23 23 23 23 23 23 22 22 21 21 20 20 20 19 19 18 18 17 17 16 16 15 15 14 14 14 13 13 13 13 13 13 13 12 12
Wind_Speed
12 11 11 10 8 8 9 8 7 4 5 5 1 2 5 5 5 9 9 9 9 9 9 9 10 11 10 8 7 7 6 4 2 2 2 1 1 0 1 2 4 3 1 2
12 13 14 11 10 10 7 6 6 5 7 5 1 2 2 3 4 6 9 10 11 11 10 8 9 9 9 7 7 7 6 4 2 3 1 1 1 1 1 3 3 2 1 1
13 10 7 9 10 10 9 6 6 7 4 1 1 0 2 5 4 5 7 9 11 12 12 10 10 9 8 8 7 6 5 4 3 2 0 2 1 2 1 1 2 2 1 1
11 12 9 9 8 8 9 5 6 7 6 4 4 2 3 7 6 6 7 8 9 10 11 10 10 9 9 8 8 8 6 4 3 1 2 3 2 2 3 2 2 2 2 2
11 13 11 9 8 7 7 5 7 8 7 4 4 2 5 9 8 9 10 10 10 10 10 10 9 8 8 8 8 8 7 4 2 1 2 3 4 4 4 4 4 3 3 3
12 14 11 9 7 6 6 5 6 7 5 4 6 3 4 6 9 11 11 11 11 11 11 10 9 9 8 8 8 8 8 5 3 1 1 2 4 4 5 5 5 4 3 2
11 12 11 9 9 6 6 6 3 2 2 5 7 2 5 7 8 11 12 13 13 12 11 11 10 9 8 7 7 7 8 5 3 2 0 2 3 4 5 4 4 5 4 3
7 7 8 7 8 7 7 7 6 5 4 3 4 3 6 7 8 10 11 12 12 12 11 11 11 10 9 8 7 7 7 5 3 2 1 1 1 3 3 5 5 5 5 4
7 6 8 7 8 7 7 8 8 7 6 4 2 7 9 9 9 10 12 12 12 12 11 11 10 9 8 8 7 7 7 5 3 1 1 2 1 1 3 4 4 4 5 6
9 8 6 5 7 7 8 8 6 6 4 3 3 3 7 11 10 10 12 12 12 11 11 11 9 9 8 7 7 6 6 5 3 1 1 1 1 1 1 3 4 4 5 5
9 9 7 4 5 7 7 7 5 6 5 2 0 1 6 9 9 10 12 13 12 11 11 10 10 9 8 8 8 7 6 5 4 2 1 1 2 2 2 3 3 4 5 5
7 7 7 4 6 9 10 8 6 5 6 4 1 2 6 7 9 9 10 12 12 11 11 11 11 10 8 7 7 6 5 4 3 3 2 2 2 2 3 4 4 4 5 5
4 5 7 3 6 8 8 9 7 5 5 5 1 3 6 7 7 7 8 10 10 10 10 11 10 9 7 6 6 5 4 3 2 2 1 1 1 2 3 4 4 4 5 6
4 6 7 6 5 7 10 13 11 7 6 6 2 3 5 6 7 8 8 9 11 11 10 10 9 8 7 6 5 4 4 3 2 2 2 1 1 2 3 4 4 5 5 6
5 8 8 7 9 12 13 13 11 10 9 8 4 3 6 6 6 7 9 10 11 12 11 11 10 8 7 6 6 5 4 3 2 2 2 2 2 3 4 4 5 5 6 7
4 7 10 10 10 11 12 13 12 11 10 9 6 3 4 7 6 6 8 9 10 11 12 12 11 10 8 7 7 5 4 3 3 3 3 3 3 4 4 4 5 5 5 6
5 6 9 11 11 11 10 10 10 10 9 7 5 1 5 6 5 5 6 8 8 10 11 11 11 10 8 7 6 6 5 4 4 4 4 3 3 4 4 6 5 5 6 6
6 7 7 10 10 11 7 5 4 5 4 3 1 4 4 4 5 6 7 7 7 7 9 10 10 10 10 8 7 6 6 5 5 5 5 4 4 4 4 4 5 5 5 6
5 8 8 9 10 10 7 5 4 4 2 2 2 3 5 4 3 4 7 8 7 6 7 8 9 10 9 9 8 7 6 6 6 6 4 4 4 4 4 5 5 5 5 6
6 7 9 10 10 9 3 3 4 3 1 4 5 5 3 1 1 3 8 8 8 8 7 8 9 10 10 8 8 7 7 6 5 5 3 3 3 4 5 6 6 6 6 7
7 9 11 12 11 4 2 2 4 3 2 5 5 4 1 1 2 6 7 8 9 9 9 8 8 8 8 8 7 7 7 6 4 4 3 4 4 5 7 7 6 6 7 8
9 8 8 8 9 2 4 2 2 2 2 3 4 3 2 2 4 6 7 8 9 9 10 10 8 7 7 8 7 7 7 5 4 4 4 5 5 7 7 5 6 6 7 8
6 3 2 1 1 2 2 2 3 2 3 3 4 4 2 1 2 4 6 8 8 8 8 8 9 8 7 7 7 8 6 5 5 5 5 6 6 6 6 7 7 7 7 8
3 4 3 1 2 2 2 2 1 2 4 5 6 5 4 3 2 5 5 5 6 6 7 7 8 8 8 7 7 6 6 5 5 6 6 6 7 8 8 7 7 7 7 7
4 3 2 1 1 2 5 5 7 7 8 7 8 8 7 5 4 4 4 4 4 4 4 4 5 5 7 7 6 6 5 5 6 6 6 7 8 9 7 7 7 8 7 7
3 2 1 1 2 3 4 6 6 6 6 8 8 8 7 7 6 6 5 4 3 3 3 3 3 3 4 5 5 4 4 5 6 6 7 8 8 7 6 6 8 11 12 13
Wind_Direction
242 244 266 281 285 293 306 326 329 333 314 296 91 122 164 158 147 127 126 131 127 119 113 115 117 117 118 119 116 113 110 107 97 89 84 91 105 213 143 125 117 114 65 24
253 246 257 283 295 298 301 299 303 276 247 247 135 96 118 130 131 130 138 138 132 131 129 132 134 134 132 129 125 130 128 128 122 99 76 97 46 294 144 95 119 117 79 348
264 265 267 280 286 294 293 299 295 287 263 255 121 128 138 125 136 143 143 144 146 148 148 152 147 143 143 144 150 136 129 134 114 94 351 32 32 298 26 54 108 84 24 327
272 276 280 287 288 294 298 312 301 296 285 258 230 212 181 156 168 164 160 157 158 151 152 154 154 153 156 158 148 131 134 130 117 107 28 349 348 360 6 3 36 26 334 300
277 277 275 277 288 295 300 328 334 348 332 315 285 266 159 166 182 177 175 170 161 157 157 159 158 159 162 157 146 141 135 131 124 65 42 357 358 356 0 3 1 347 300 270
279 281 278 278 275 270 291 311 344 18 359 296 250 231 161 178 186 174 173 170 163 164 162 160 161 160 163 160 151 146 139 140 137 122 30 22 2 351 338 330 324 324 314 308
259 274 279 272 273 266 274 284 300 327 246 250 233 216 142 167 173 166 167 168 167 165 165 165 164 164 164 165 153 144 141 142 149 159 73 6 351 319 298 306 335 341 331 344
263 271 258 253 262 270 264 262 269 284 268 214 197 136 134 146 141 148 152 158 163 169 171 169 171 169 172 164 150 143 140 147 156 168 128 15 325 306 346 20 356 332 329 343
261 243 238 240 255 267 276 275 279 282 305 308 142 129 135 139 148 152 156 162 168 169 170 174 175 170 161 153 152 147 141 141 142 146 126 230 218 314 352 345 315 322 347 327
261 275 250 233 251 251 269 287 292 297 308 329 3 131 151 163 171 168 168 168 167 169 172 171 163 151 145 144 138 131 132 133 136 168 255 296 40 300 315 308 320 318 313 314
257 269 273 255 266 283 273 273 294 307 314 334 316 15 149 173 171 177 177 172 170 174 171 161 149 143 146 150 145 144 147 152 169 193 194 289 281 308 314 290 292 305 311 310
267 273 281 305 326 314 284 273 280 293 314 318 75 118 140 166 167 179 175 169 168 172 169 158 150 148 155 154 150 153 159 169 178 181 188 221 253 295 304 308 321 316 304 298
297 286 282 309 354 333 302 285 272 278 282 294 328 172 164 159 157 163 161 157 158 164 162 150 144 150 156 156 152 157 167 170 179 174 226 237 266 300 297 298 299 297 294 292
267 265 273 268 221 237 266 271 270 260 267 282 326 177 195 167 165 164 157 155 164 163 156 148 143 151 154 153 155 167 169 169 175 172 247 266 280 282 283 284 288 288 289 288
260 266 270 253 224 215 242 253 254 249 256 267 269 241 208 175 182 165 160 166 169 164 163 157 154 156 157 162 164 175 172 163 170 207 244 256 263 266 272 278 283 283 285 291
260 280 290 281 265 257 259 255 254 257 262 265 258 246 141 141 153 159 164 172 174 170 170 166 165 165 168 174 176 172 173 173 180 217 242 245 259 272 273 277 275 280 286 290
261 264 274 282 292 287 270 268 259 254 257 265 268 207 134 150 141 151 162 174 177 176 172 168 168 165 166 173 168 170 179 178 195 221 241 246 254 268 277 290 299 297 296 293
251 263 268 273 282 272 276 291 288 275 267 259 188 127 132 130 140 161 171 171 175 175 170 163 163 161 165 167 165 175 184 189 205 218 233 245 254 268 277 283 287 289 289 289
255 250 259 268 269 271 279 312 323 299 283 28 84 100 107 109 149 170 156 151 157 161 151 150 160 162 160 165 167 177 196 205 214 225 228 242 255 270 278 283 286 287 285 286
256 246 249 257 265 274 285 312 323 300 166 45 73 78 77 118 259 116 129 144 149 144 145 153 160 157 157 163 165 182 204 215 224 234 238 247 254 263 272 274 277 282 282 280
234 237 243 257 264 268 79 69 338 273 104 37 46 56 49 61 70 123 142 143 143 143 148 152 156 155 158 160 166 193 213 220 225 234 240 248 251 256 258 259 260 268 274 278
231 236 243 258 267 275 26 60 51 34 353 11 28 22 23 84 127 144 140 142 150 155 161 162 155 154 156 163 176 202 215 217 221 232 243 250 252 263 273 269 265 264 268 275
254 264 247 198 197 120 2 32 68 314 326 346 355 357 360 115 156 143 138 145 153 161 164 165 164 163 167 173 186 208 211 210 221 234 244 252 259 259 263 263 266 267 266 272
320 316 283 183 174 140 103 66 48 30 9 7 5 3 7 17 77 100 114 136 149 161 167 172 173 179 180 184 195 210 211 207 219 237 247 253 255 258 257 253 262 268 274 281
280 262 265 31 157 149 66 38 33 31 20 14 20 25 21 22 49 86 102 118 140 152 158 174 180 186 185 184 195 209 214 210 228 244 254 261 262 262 258 256 253 260 261 263
320 347 296 110 70 59 51 22 18 32 26 23 27 30 36 39 45 62 82 90 104 123 129 151 183 194 193 187 196 205 211 219 233 248 257 266 272 273 272 273 273 256 249 245
Height
1485 1487 1486 1478 1473 1473 1473 1478 1483 1483 1476 1478 1481 1485 1485 1487 1490 1492 1496 1501 1505 1507 1510 1512 1514 1517 1519 1521 1522 1524 1526 1527 1529 1529 1530 1531 1532 1533 1533 1533 1532 1532 1532 1532
1481 1483 1475 1470 1468 1469 1472 1479 1483 1481 1475 1476 1481 1485 1484 1487 1491 1493 1497 1501 1505 1509 1512 1514 1516 1517 1519 1521 1523 1524 1525 1527 1529 1529 1530 1531 1532 1532 1533 1533 1532 1531 1531 1531
1478 1472 1466 1467 1469 1471 1472 1476 1478 1478 1473 1473 1482 1493 1490 1490 1492 1494 1497 1500 1504 1508 1511 1514 1516 1518 1519 1521 1523 1525 1526 1528 1529 1530 1531 1531 1532 1532 1532 1532 1531 1530 1530 1530
1473 1466 1466 1468 1469 1470 1475 1469 1471 1474 1480 1486 1486 1504 1496 1491 1493 1494 1497 1500 1503 1506 1510 1512 1515 1516 1519 1521 1522 1524 1526 1527 1528 1529 1530 1530 1531 1531 1531 1530 1530 1529 1528 1528
1473 1466 1466 1468 1467 1466 1469 1467 1471 1479 1488 1493 1492 1498 1498 1492 1493 1493 1495 1498 1501 1505 1508 1511 1514 1516 1519 1521 1523 1524 1525 1527 1527 1528 1528 1528 1529 1529 1528 1528 1528 1527 1527 1526
1469 1464 1462 1462 1460 1462 1463 1469 1477 1488 1503 1514 1501 1500 1502 1490 1487 1488 1492 1496 1500 1504 1507 1510 1513 1516 1519 1521 1522 1524 1524 1526 1526 1527 1527 1527 1526 1526 1526 1525 1525 1525 1525 1524
1473 1467 1462 1461 1463 1462 1465 1479 1499 1515 1522 1514 1491 1492 1493 1481 1480 1483 1488 1493 1498 1502 1506 1509 1513 1515 1518 1520 1522 1523 1524 1524 1525 1525 1525 1525 1525 1524 1524 1523 1523 1523 1523 1522
1480 1484 1467 1461 1463 1466 1465 1471 1493 1506 1507 1499 1487 1492 1485 1476 1478 1482 1487 1491 1496 1500 1504 1508 1511 1513 1516 1519 1521 1522 1523 1523 1524 1524 1524 1523 1523 1522 1522 1521 1520 1520 1520 1519
1472 1476 1460 1457 1456 1457 1464 1465 1460 1473 1482 1492 1488 1484 1479 1475 1478 1481 1486 1490 1494 1498 1502 1506 1509 1512 1515 1517 1519 1520 1521 1522 1522 1522 1522 1521 1521 1520 1520 1519 1518 1518 1517 1516
1458 1468 1458 1455 1455 1454 1456 1456 1461 1472 1488 1503 1498 1490 1487 1480 1479 1479 1483 1487 1492 1496 1500 1504 1507 1510 1513 1516 1517 1519 1519 1520 1520 1521 1520 1521 1519 1519 1518 1517 1516 1515 1514 1512
1451 1464 1462 1459 1464 1465 1462 1461 1463 1465 1470 1494 1513 1500 1473 1473 1475 1477 1479 1484 1489 1494 1498 1502 1505 1509 1512 1514 1516 1517 1518 1518 1519 1519 1518 1518 1517 1517 1516 1515 1514 1512 1511 1510
1452 1457 1466 1468 1464 1461 1460 1461 1462 1476 1478 1474 1488 1495 1466 1469 1471 1474 1476 1481 1486 1491 1495 1499 1503 1507 1510 1513 1514 1515 1516 1517 1517 1517 1516 1516 1515 1515 1514 1513 1511 1510 1508 1507
1455 1463 1477 1482 1486 1476 1470 1460 1458 1462 1469 1474 1487 1490 1465 1466 1468 1471 1475 1479 1484 1489 1493 1497 1501 1505 1508 1511 1512 1514 1515 1515 1515 1515 1515 1514 1513 1512 1511 1510 1509 1507 1506 1504
1455 1461 1473 1489 1494 1486 1479 1467 1459 1462 1471 1474 1475 1477 1466 1465 1467 1470 1474 1478 1483 1488 1492 1496 1499 1503 1506 1509 1510 1512 1512 1513 1513 1512 1512 1512 1511 1510 1509 1508 1506 1505 1503 1501
1453 1460 1460 1464 1464 1467 1467 1461 1456 1458 1459 1465 1467 1467 1462 1461 1464 1467 1471 1476 1481 1485 1490 1494 1498 1501 1504 1506 1508 1509 1510 1510 1510 1510 1510 1509 1508 1507 1506 1505 1504 1502 1500 1499
1455 1460 1460 1461 1456 1456 1456 1452 1450 1450 1451 1452 1454 1458 1454 1458 1462 1466 1470 1474 1478 1483 1487 1491 1495 1498 1501 1503 1505 1506 1507 1507 1507 1507 1507 1507 1506 1505 1504 1502 1501 1499 1497 1496
1455 1461 1466 1465 1455 1455 1461 1447 1446 1447 1444 1446 1454 1453 1452 1457 1460 1465 1469 1473 1476 1480 1484 1488 1492 1495 1498 1500 1502 1503 1504 1504 1504 1504 1504 1504 1503 1502 1501 1500 1498 1496 1494 1492
1457 1461 1462 1463 1464 1476 1454 1437 1438 1441 1441 1441 1444 1448 1451 1455 1460 1464 1468 1471 1475 1479 1482 1485 1489 1492 1495 1497 1499 1500 1501 1501 1502 1502 1502 1501 1500 1499 1498 1496 1495 1493 1491 1489
1452 1457 1460 1462 1467 1462 1448 1442 1443 1447 1447 1442 1445 1448 1452 1456 1459 1463 1466 1470 1474 1477 1480 1483 1487 1489 1492 1494 1495 1497 1498 1498 1498 1499 1498 1498 1497 1495 1494 1492 1491 1489 1487 1485
1453 1453 1458 1459 1466 1470 1457 1446 1445 1447 1454 1446 1447 1450 1453 1456 1461 1463 1466 1470 1473 1476 1479 1482 1485 1487 1489 1490 1492 1493 1494 1495 1495 1495 1495 1494 1493 1491 1490 1488 1487 1485 1483 1481
1460 1459 1458 1458 1461 1456 1448 1446 1448 1463 1462 1451 1450 1452 1455 1457 1461 1464 1466 1469 1472 1475 1477 1480 1482 1484 1486 1487 1489 1490 1491 1492 1492 1492 1491 1490 1489 1487 1486 1485 1483 1481 1479 1477
1458 1459 1458 1458 1464 1466 1452 1449 1457 1460 1454 1452 1453 1454 1456 1458 1460 1462 1465 1467 1470 1473 1475 1478 1480 1481 1483 1484 1485 1486 1487 1488 1488 1488 1487 1486 1485 1484 1483 1481 1479 1477 1475 1473
1447 1447 1450 1455 1460 1456 1455 1455 1456 1456 1455 1455 1454 1454 1456 1457 1459 1461 1463 1466 1468 1471 1473 1475 1477 1479 1480 1481 1482 1482 1483 1484 1484 1483 1483 1482 1481 1480 1478 1476 1475 1473 1471 1469
1443 1444 1447 1453 1454 1455 1454 1456 1455 1456 1456 1455 1455 1455 1456 1457 1458 1459 1462 1464 1467 1469 1471 1473 1475 1476 1477 1478 1479 1479 1480 1479 1479 1479 1478 1478 1476 1475 1474 1472 1471 1469 1468 1466
1443 1444 1446 1450 1453 1454 1455 1456 1456 1456 1457 1456 1456 1456 1457 1457 1458 1460 1461 1463 1465 1467 1469 1471 1472 1474 1475 1475 1476 1476 1477 1476 1475 1475 1474 1473 1472 1471 1469 1468 1466 1464 1463 1461
1441 1444 1447 1452 1454 1454 1456 1456 1457 1457 1457 1457 1457 1458 1458 1459 1460 1461 1462 1463 1465 1466 1467 1469 1470 1471 1472 1473 1473 1473 1473 1473 1472 1471 1470 1469 1468 1467 1465 1463 1461 1459 1458 1455